Wind_Speed
17 17 18 20 20 19 17 16 16 15 15 15 15 16 17 18 18 18 17 16 16 16 16 16 15 14 13 13 13 12 11 11 11 11 12 12 12 12 13 13 14 15 15 15 16 16 16 17 17 17 17 17 18 18 18 18 18 18 18 18 18 19 20 20 19 18 17 17 17 16 15 14 14 13 13 14 14 15 15 15 15 15 15 15 15
17 18 19 20 21 20 19 18 18 17 17 16 16 17 17 18 18 18 17 16 16 17 17 17 17 16 14 14 13 13 12 12 12 12 12 12 12 12 13 13 14 15 15 16 16 16 17 18 19 19 19 19 19 19 20 20 20 20 20 19 19 19 19 20 20 20 19 19 18 18 18 17 16 15 15 14 14 15 15 16 16 16 16 16 16
18 19 20 21 21 21 20 20 20 19 18 17 17 17 18 18 18 18 18 17 16 17 18 18 17 17 16 15 15 14 13 12 12 12 13 13 12 13 13 13 14 15 16 16 17 18 18 19 20 21 21 22 22 22 22 22 22 22 21 21 21 20 20 20 20 20 20 20 20 20 20 19 19 18 17 16 16 15 15 15 16 16 16 17 16
18 20 21 22 22 22 21 21 21 20 19 18 18 18 18 18 18 18 19 18 17 17 19 19 18 17 16 16 16 15 14 13 13 13 13 13 13 13 13 14 15 16 17 18 19 20 21 21 22 23 24 24 24 24 24 24 24 24 23 23 22 22 21 21 21 21 21 21 21 21 21 21 21 20 19 19 18 17 16 15 15 16 16 17 17
19 20 22 23 23 23 22 22 22 21 20 20 19 19 19 18 18 19 20 19 19 19 20 19 19 17 16 15 16 15 14 14 14 13 13 13 13 14 15 16 16 17 18 19 21 22 23 24 24 25 26 26 26 26 26 26 25 25 24 24 24 24 23 23 22 22 22 22 22 22 22 22 22 22 21 20 20 19 18 17 16 16 16 16 17
20 21 23 24 24 23 23 23 23 22 22 21 20 20 19 19 19 20 21 21 20 20 20 19 18 17 15 15 15 15 14 14 14 14 13 14 14 15 16 17 17 18 19 21 22 23 25 26 27 28 28 28 28 28 28 27 26 25 25 25 25 25 25 24 24 24 23 23 23 23 23 23 22 22 22 22 21 20 20 19 18 17 17 17 17
21 22 24 25 24 24 24 24 24 24 23 22 22 20 19 20 21 21 22 21 21 21 20 18 17 16 15 15 14 14 14 14 14 15 14 15 15 16 17 18 19 19 20 21 23 25 26 28 29 29 29 29 29 29 28 27 26 25 25 26 26 26 26 26 26 25 25 25 24 23 23 24 24 23 23 23 23 22 21 21 20 19 18 18 17
21 23 25 26 25 25 25 25 26 26 24 23 22 20 19 21 22 22 22 21 21 21 19 17 16 15 15 15 14 14 14 15 15 16 16 16 17 17 18 19 20 20 21 23 24 25 27 29 30 30 30 30 30 29 28 27 27 26 26 27 28 28 29 29 29 28 28 28 27 26 25 25 25 25 24 24 24 23 23 22 21 21 20 19 19
22 23 26 27 26 25 24 26 27 26 24 23 22 20 20 22 23 23 22 22 21 21 19 17 16 15 15 15 14 14 15 15 16 16 16 17 17 18 19 20 21 22 23 25 26 27 29 31 31 31 31 30 30 30 29 29 28 29 29 29 30 31 31 31 31 31 31 30 30 30 29 28 27 26 26 26 25 25 24 24 23 22 22 21 21
23 24 26 28 27 25 25 26 27 26 24 22 21 20 21 23 23 23 22 22 21 20 18 17 16 15 16 15 15 15 15 16 16 17 17 17 18 19 19 21 22 23 24 26 28 30 32 33 34 33 31 30 30 30 30 30 30 30 31 31 32 32 33 33 33 32 32 32 32 32 32 31 30 29 28 27 27 26 26 25 25 24 24 23 23
24 25 27 28 27 25 25 26 27 26 24 22 20 20 22 23 22 22 22 22 21 20 18 17 16 16 16 16 15 16 16 17 17 18 18 19 19 20 20 21 22 24 25 27 29 31 33 34 35 35 33 31 30 30 31 32 33 32 32 32 33 33 34 34 34 33 33 34 34 34 34 33 32 32 31 30 29 27 27 26 26 26 26 25 24
25 27 28 29 28 26 26 27 27 25 23 20 20 20 21 22 22 22 22 21 21 20 19 18 16 16 17 16 16 17 17 18 18 19 19 20 21 21 22 23 24 26 27 28 29 31 32 33 34 35 34 32 31 30 29 31 34 34 33 33 34 34 34 35 35 35 35 35 36 36 35 35 35 34 33 32 31 29 28 28 28 28 27 26 25
27 28 28 28 27 26 27 27 26 25 22 19 20 21 21 21 22 22 22 21 21 21 20 18 17 16 16 16 17 18 18 19 19 20 21 22 23 23 24 25 26 27 28 29 30 31 32 33 33 33 33 33 33 31 29 30 33 36 36 35 34 35 35 35 35 36 37 37 38 38 38 38 37 37 35 34 33 31 30 29 29 29 29 28 28
28 28 28 28 27 27 27 27 26 25 22 20 21 22 21 21 22 22 22 21 21 20 19 17 17 16 16 17 17 18 19 20 21 21 23 24 25 25 25 26 27 29 30 31 32 32 32 32 32 32 33 34 34 33 32 32 33 35 37 36 35 35 35 36 37 37 38 39 39 40 41 41 40 39 38 37 35 33 32 30 30 29 30 30 29
29 29 28 28 28 28 28 27 25 25 23 21 21 21 20 20 21 22 21 20 20 19 18 16 16 17 17 17 18 19 20 21 22 22 23 24 25 26 26 27 30 32 33 34 34 35 34 33 33 33 34 34 34 34 35 35 35 35 36 36 36 37 37 38 39 39 39 40 41 41 42 43 43 42 41 40 37 35 33 31 31 30 31 31 30
31 29 29 28 28 29 29 27 24 24 24 21 20 20 20 20 21 21 21 20 19 18 18 17 17 17 18 18 19 20 20 21 22 23 24 25 26 28 30 31 33 34 35 36 36 36 36 35 34 34 34 35 35 35 35 36 36 36 37 37 38 39 39 40 40 40 40 41 41 42 42 43 43 43 43 42 39 37 35 34 32 31 32 32 30
32 30 29 29 30 30 30 27 23 23 22 20 20 20 20 21 21 21 21 21 20 19 19 18 18 18 18 19 20 20 22 23 24 25 26 27 28 30 32 33 34 35 35 36 36 35 35 36 36 35 35 36 36 36 36 36 37 38 39 39 39 40 40 40 41 41 41 41 41 42 42 42 42 43 43 43 40 38 37 36 34 33 33 32 31
33 31 30 29 30 30 29 26 24 23 22 20 21 21 20 20 21 20 21 21 20 19 19 19 19 19 20 20 21 22 23 25 27 28 29 30 30 31 33 33 34 35 36 36 35 35 35 36 36 37 37 36 36 36 37 38 39 39 40 40 40 40 40 40 41 41 41 42 42 42 42 42 42 42 42 42 41 40 39 38 36 35 34 33 32
30 28 28 29 29 30 29 26 24 23 22 21 20 20 20 20 19 19 21 21 21 19 19 19 19 20 21 21 22 23 24 25 27 29 31 33 33 33 34 35 35 35 35 36 36 35 35 36 37 37 37 37 37 38 39 40 41 40 40 40 40 40 40 40 40 41 42 42 43 43 43 43 43 42 42 41 41 40 40 40 38 36 35 34 34
28 28 28 29 30 29 28 26 25 23 22 22 21 19 19 19 19 19 20 21 21 20 19 19 19 20 21 22 22 24 25 26 28 30 32 35 36 35 35 36 36 36 36 36 36 37 37 37 37 37 37 37 38 39 40 41 41 40 40 40 40 40 40 40 40 40 41 41 42 42 43 43 44 43 43 43 42 41 41 41 40 38 37 36 35
31 32 32 31 29 28 27 26 25 24 23 22 20 19 18 19 19 20 20 20 20 20 19 19 19 20 21 22 23 24 25 26 28 30 32 35 37 37 37 36 36 37 38 38 37 38 39 39 38 38 38 39 40 40 41 41 40 39 39 39 38 38 39 39 39 39 39 39 40 41 41 42 43 44 44 44 44 43 42 42 42 41 39 38 37
35 35 33 31 28 26 25 25 24 24 23 21 19 19 18 19 19 20 20 20 20 20 19 19 19 20 21 22 23 24 26 27 29 31 33 35 37 37 37 37 37 36 36 37 38 39 39 39 40 41 41 42 43 43 42 42 41 40 39 39 38 38 39 39 40 40 40 40 40 41 41 41 42 43 43 44 44 45 44 43 43 42 41 40 39
36 35 33 30 27 25 24 23 23 23 22 20 19 19 19 19 20 19 19 19 20 19 19 19 19 20 21 23 24 26 28 30 31 33 34 35 36 36 36 37 37 36 35 36 37 38 39 39 40 40 41 41 40 40 40 40 41 41 40 40 41 41 41 42 43 44 44 45 45 45 45 45 45 45 45 44 44 44 45 44 44 43 43 42 41
36 36 33 28 25 24 22 22 22 22 21 20 20 19 19 19 19 19 19 19 19 19 18 19 20 21 23 25 27 29 30 32 33 34 34 35 35 35 36 36 36 36 35 36 37 37 37 38 38 38 38 38 37 37 37 38 39 40 41 42 43 44 45 46 47 47 48 48 49 49 50 49 49 49 49 48 48 47 46 45 44 44 43 43 43
35 34 31 27 25 22 21 21 22 21 20 20 20 19 19 19 19 19 19 19 18 18 19 20 21 23 25 27 29 30 32 33 34 34 34 34 34 35 35 34 35 36 37 37 38 38 38 37 37 36 36 36 36 36 37 38 40 41 43 44 45 47 48 49 49 50 50 50 50 51 51 51 51 51 51 51 51 51 50 48 47 46 45 44 44
34 31 28 26 24 23 22 22 21 20 20 21 20 19 19 18 18 18 18 18 18 19 20 21 23 24 26 28 30 31 32 33 34 34 34 34 34 33 33 34 35 36 38 38 38 38 37 36 34 34 34 35 37 38 39 41 42 44 45 47 48 49 50 51 51 51 51 51 51 52 52 52 52 52 52 52 52 52 52 52 50 49 48 47 46
31 30 26 25 25 24 23 22 21 20 20 21 20 19 18 18 17 17 18 18 19 19 20 22 24 25 27 29 30 31 32 33 33 33 33 32 32 33 33 34 35 36 37 37 36 34 34 34 34 35 36 37 39 40 42 43 45 46 48 49 50 50 51 52 52 52 51 51 51 52 52 53 53 53 53 53 53 53 53 53 52 51 50 50 49
29 28 25 24 26 26 24 23 21 20 20 21 20 19 18 17 17 17 18 19 19 20 21 23 25 26 27 28 29 30 31 32 31 30 30 31 32 33 33 35 35 36 35 34 33 32 33 34 35 37 38 40 41 42 44 46 47 49 50 51 52 52 52 53 53 53 52 52 52 52 52 53 53 54 54 55 54 54 54 54 54 53 52 52 51
28 26 24 24 25 25 24 22 20 19 20 20 19 18 17 17 17 18 18 19 20 21 22 24 25 26 27 27 27 29 29 29 28 28 30 31 32 33 34 34 34 33 32 31 31 32 34 35 37 39 40 42 43 45 47 48 50 51 52 53 53 54 54 54 54 54 54 53 53 52 52 52 52 53 54 55 56 56 55 55 55 54 54 53 53
24 24 24 27 29 28 25 21 19 19 20 19 18 18 17 18 18 18 18 19 20 22 23 24 25 26 26 26 27 28 28 27 28 29 31 31 32 33 33 33 31 30 29 30 32 33 35 36 38 40 41 43 45 47 49 51 52 53 54 55 56 56 57 57 57 56 55 54 52 51 49 48 48 48 50 52 54 55 56 56 56 56 55 55 54
23 23 23 26 28 27 23 19 18 19 19 18 18 18 18 17 17 18 19 20 21 22 23 24 25 25 26 27 28 29 29 28 29 31 31 31 32 32 31 30 28 28 29 31 32 34 36 38 39 41 43 46 48 50 52 53 54 55 56 57 57 58 59 58 57 55 52 50 48 46 44 43 42 42 43 45 48 50 52 54 55 56 56 56 55
23 22 22 23 23 21 18 18 18 18 18 17 17 17 17 17 17 18 20 21 21 22 23 24 25 26 27 27 28 29 28 29 30 31 31 31 31 30 28 27 27 28 29 32 34 35 37 39 41 44 46 48 49 51 53 55 56 56 56 57 57 56 55 54 52 50 49 47 45 44 42 41 40 39 39 39 41 43 45 48 50 52 54 55 55
24 23 23 21 19 17 17 17 17 17 17 17 16 16 16 17 18 19 20 21 21 22 24 25 26 26 26 27 28 28 28 29 30 30 31 30 29 27 27 27 27 29 31 33 35 36 38 40 43 45 47 49 51 53 54 55 55 55 54 53 53 51 50 49 49 49 48 47 46 45 43 41 40 39 38 37 37 38 40 41 44 46 48 51 52
24 23 22 19 16 16 16 16 16 16 16 16 16 16 16 17 18 20 20 21 22 24 25 26 26 26 26 28 28 28 28 28 29 30 30 28 27 26 26 27 28 30 32 34 35 38 40 42 44 46 48 51 53 53 54 54 54 52 50 49 48 47 47 48 48 48 48 47 45 44 42 40 39 38 38 37 36 36 37 37 39 41 43 45 47
22 22 20 16 15 14 14 15 16 16 15 15 16 16 17 18 19 20 20 21 23 24 25 25 25 26 27 27 27 26 27 28 29 29 27 26 26 26 26 28 29 31 33 35 37 39 41 43 45 47 49 51 52 53 53 53 52 49 47 45 45 45 46 46 46 45 45 44 42 41 40 39 38 38 37 37 35 33 33 34 36 37 39 41 43
19 19 17 13 12 12 13 15 16 15 15 15 16 17 18 18 19 20 21 21 22 23 23 23 24 25 25 25 25 25 27 28 27 26 25 25 25 26 27 29 31 32 34 36 38 40 42 44 47 49 50 51 52 52 51 50 48 46 44 43 43 44 44 43 42 42 42 42 41 40 38 38 37 37 37 36 34 31 29 29 32 33 34 36 38
15 13 11 9 10 11 13 14 15 15 16 16 17 18 18 19 20 20 21 21 21 22 23 23 24 24 24 24 25 26 27 27 26 25 25 25 25 26 28 30 32 33 35 37 39 41 43 45 47 49 50 51 51 51 49 46 43 42 42 41 42 41 41 41 41 40 40 41 41 40 39 38 37 36 35 34 33 31 28 26 27 29 31 32 33
13 9 8 9 10 11 13 14 15 16 17 17 18 18 19 20 20 21 21 20 21 23 23 24 25 25 24 25 26 26 26 25 24 24 24 24 26 27 29 31 33 34 36 38 40 42 44 46 48 49 50 50 50 48 45 43 40 39 40 40 40 39 39 39 40 40 39 39 40 40 40 40 39 37 35 33 31 31 29 27 25 27 29 30 31
10 9 9 10 12 12 14 15 16 17 18 18 19 19 20 21 21 21 21 21 23 24 25 25 25 25 25 26 26 26 25 24 24 24 24 25 27 29 30 32 33 35 37 39 41 43 45 47 48 49 49 49 47 45 42 40 38 37 38 38 38 38 38 38 38 38 38 37 37 37 38 38 38 37 36 34 32 30 29 29 28 28 29 30 31
11 11 11 12 13 14 15 16 17 17 18 18 20 21 22 22 22 22 22 23 25 26 26 26 25 25 26 26 26 25 24 24 24 24 24 26 28 29 31 33 34 36 38 40 42 43 45 47 48 48 48 46 44 42 39 36 35 36 36 37 37 37 37 38 38 38 38 36 35 35 35 34 34 34 34 34 33 31 30 30 30 30 30 30 30
12 12 13 13 14 14 15 16 17 18 18 19 21 22 23 24 23 23 24 25 26 26 26 25 25 25 26 25 25 24 24 24 23 24 25 27 29 30 32 33 35 37 39 40 42 44 45 47 47 46 45 43 41 38 36 34 34 35 36 36 36 36 37 37 38 39 39 38 36 35 35 33 30 30 31 32 32 32 31 30 28 27 26 26 27
13 13 14 14 15 15 16 17 17 18 20 21 22 23 24 24 24 24 25 26 26 25 25 24 24 25 25 24 24 24 23 23 23 24 26 28 30 31 32 34 36 37 39 40 42 44 45 45 45 44 42 40 38 36 34 33 34 34 34 35 34 35 35 36 37 38 39 39 39 38 38 36 33 32 31 30 30 30 30 29 26 24 23 23 24
14 15 15 15 15 15 16 16 17 19 20 21 22 23 24 24 24 24 24 25 25 24 24 24 24 24 24 24 24 23 23 23 24 25 27 29 30 32 33 35 36 38 39 40 42 43 44 44 43 41 39 37 36 34 33 33 33 34 34 34 34 34 34 35 36 37 38 40 40 40 40 39 37 36 34 32 31 31 29 27 25 23 23 23 23
16 16 17 17 17 17 17 17 18 19 20 21 22 22 22 22 22 22 23 23 23 23 23 24 24 24 23 23 23 23 22 23 24 26 28 29 31 32 34 35 36 38 39 40 41 42 43 42 41 39 37 35 33 32 32 32 33 33 33 33 33 33 34 35 36 36 38 39 40 41 42 41 40 39 37 35 34 34 32 29 25 23 24 24 25
16 17 17 18 20 20 20 20 20 20 20 21 21 21 21 20 21 21 22 22 22 23 23 23 23 23 23 23 23 22 22 23 25 26 28 30 31 33 34 35 36 38 38 40 41 42 42 41 39 37 35 33 31 30 30 31 32 32 32 32 32 32 33 34 35 37 38 39 40 41 42 42 42 41 40 38 36 36 36 34 29 25 24 24 24
16 16 17 19 20 20 19 19 20 20 20 20 20 20 20 20 21 21 21 21 22 22 22 22 22 22 23 23 22 22 23 24 25 27 28 30 32 33 34 35 36 37 38 39 40 40 40 39 37 35 33 31 30 30 30 30 31 31 31 31 31 32 33 33 35 37 38 39 40 40 41 42 43 43 43 42 40 38 37 37 35 30 27 25 23
17 17 18 19 20 19 19 20 20 21 21 20 19 19 20 20 20 20 20 21 22 22 22 22 22 22 22 22 22 22 24 25 26 27 29 31 32 33 34 35 36 37 38 39 39 39 38 37 35 33 31 30 30 29 30 30 31 31 31 31 31 32 32 33 34 35 36 38 39 40 40 41 42 43 43 43 43 41 39 38 38 35 32 29 26
19 20 21 21 21 21 20 21 21 21 21 21 20 20 20 20 20 20 21 22 22 22 21 22 22 22 22 22 22 23 24 25 26 28 29 31 33 33 34 35 36 36 37 38 38 37 36 35 33 31 30 30 29 29 29 29 30 31 31 31 31 31 32 32 33 34 35 36 38 39 40 40 41 42 43 43 43 43 41 40 39 37 34 33 30
22 23 23 23 23 22 21 21 22 22 21 21 21 21 20 20 20 21 21 22 22 22 22 22 22 22 22 22 23 24 25 26 27 28 30 32 32 33 34 34 35 35 36 37 37 36 35 34 32 30 29 28 28 29 28 28 29 29 30 30 30 31 31 32 33 33 34 35 36 38 39 40 40 40 41 42 42 43 43 42 40 38 37 37 35
24 24 24 24 24 23 23 23 23 22 22 21 21 21 20 20 20 21 22 22 22 22 22 23 23 23 22 23 23 25 25 26 27 28 30 32 32 32 33 34 34 34 35 35 35 34 33 31 30 29 28 27 27 27 27 28 28 28 29 30 30 31 32 32 33 33 33 34 35 36 37 39 39 38 38 39 40 41 42 42 41 40 40 39 38
26 26 25 25 24 24 25 25 24 23 22 21 21 20 20 21 21 22 22 22 23 23 23 23 23 23 23 23 24 25 26 26 27 29 30 32 32 32 32 33 33 34 34 35 34 33 32 30 30 29 28 27 27 27 27 28 28 29 30 31 31 32 32 33 34 34 33 34 34 34 35 37 38 39 39 38 38 40 41 41 42 41 41 40 38
Wind_Direction
272 259 250 252 257 260 263 264 267 272 275 280 286 291 295 297 300 302 301 299 297 297 297 298 298 299 302 303 301 299 299 300 301 301 301 303 306 308 312 314 315 316 318 321 325 329 333 334 334 334 334 332 331 330 328 326 324 323 322 321 321 320 319 321 322 324 325 326 326 326 325 325 325 323 320 316 311 304 298 294 293 292 289 286 281
270 257 250 251 256 260 263 265 268 271 274 278 283 288 292 295 300 302 301 298 296 296 296 297 298 298 300 304 303 300 300 301 301 302 301 302 303 304 306 308 310 313 317 321 325 329 332 332 332 333 333 332 331 330 329 327 325 323 322 320 319 318 317 318 319 319 320 320 320 320 320 320 320 320 320 318 316 313 307 300 295 292 290 288 285
268 256 251 252 254 257 261 265 268 272 274 278 282 286 290 293 298 301 299 296 297 297 296 297 298 299 301 304 303 300 299 299 299 299 299 299 299 300 303 306 310 314 318 322 326 329 331 331 330 330 330 330 330 329 328 327 326 324 322 320 318 317 317 317 317 317 317 317 317 316 316 316 316 316 316 315 314 314 312 308 301 294 290 287 286
266 255 251 253 254 255 258 263 268 272 274 277 281 284 287 291 295 297 295 293 297 301 301 298 297 299 301 302 300 298 297 295 294 296 297 297 298 300 303 307 312 316 319 322 324 326 328 329 329 328 327 327 327 326 325 325 324 323 321 320 318 317 316 315 315 315 315 316 316 314 313 313 313 313 312 311 311 310 310 309 305 300 293 287 284
263 254 250 252 254 255 257 262 267 270 273 276 279 282 284 288 292 293 291 290 295 303 304 299 295 295 296 296 295 294 293 292 293 295 296 298 300 303 305 308 311 315 317 319 321 322 323 325 325 324 324 324 324 323 323 323 322 321 320 319 318 317 316 315 314 313 313 313 313 313 312 312 311 310 309 308 307 307 306 305 304 301 297 291 286
260 253 250 251 253 255 257 260 265 268 272 275 278 280 282 285 288 289 290 291 294 302 303 296 290 289 289 289 289 290 290 291 294 296 298 300 303 305 305 306 308 311 315 317 318 319 320 321 321 321 321 321 321 321 321 321 321 320 319 318 317 316 316 315 315 314 312 311 311 311 311 311 310 308 307 306 305 303 302 301 300 299 297 295 291
259 252 250 252 252 253 254 258 263 267 270 274 277 280 281 282 285 287 290 292 295 301 299 290 284 285 287 286 287 289 291 293 295 297 299 300 302 302 303 304 305 308 310 313 315 316 317 317 317 317 317 318 318 317 318 318 318 318 317 317 316 316 315 315 314 314 313 312 310 309 308 308 307 307 306 304 303 301 299 297 296 295 294 294 292
258 252 251 252 252 252 253 257 261 264 268 271 275 279 280 281 283 287 290 292 297 300 296 286 282 284 288 288 290 293 294 295 296 297 299 299 300 300 301 303 305 307 309 310 312 313 313 313 313 313 314 314 314 313 313 313 313 313 314 314 314 314 313 313 313 313 312 311 310 309 307 306 305 305 304 302 300 299 298 295 293 291 291 291 290
257 253 252 253 252 252 253 256 259 263 267 270 274 278 279 280 282 286 289 292 297 300 294 286 284 288 290 289 291 294 295 297 297 297 297 297 298 299 302 303 306 309 311 311 311 309 309 309 310 310 312 312 311 310 310 310 310 311 311 311 311 311 311 311 311 311 310 309 309 307 307 306 304 303 301 300 299 298 296 295 292 289 287 287 286
258 255 254 254 254 253 253 255 258 262 266 270 274 276 277 278 281 286 288 292 297 299 295 288 288 292 292 291 293 295 298 298 297 296 295 296 298 301 303 305 308 310 311 311 311 311 311 310 309 308 308 308 308 308 308 308 308 308 309 310 310 310 309 309 309 309 308 307 307 306 305 305 303 301 299 298 296 295 295 293 291 288 286 285 284
257 256 255 256 257 255 254 255 258 262 266 271 274 274 275 277 281 285 287 292 296 298 296 291 289 291 291 292 294 297 298 297 296 297 298 300 301 302 304 306 307 308 309 311 312 313 313 312 310 308 308 307 307 307 308 308 307 307 308 309 309 309 308 307 307 307 307 306 305 304 304 304 303 301 299 297 295 293 291 289 288 286 285 284 282
255 255 256 257 258 257 256 257 259 263 268 273 276 273 274 277 280 283 286 291 296 297 296 293 290 289 289 292 296 298 297 296 297 298 301 302 302 303 304 305 305 307 309 311 312 311 310 309 309 308 308 307 306 306 307 308 308 308 308 308 308 307 307 306 306 306 305 305 304 303 303 303 302 301 300 298 295 292 289 286 285 284 284 282 280
253 255 256 258 259 258 257 257 259 264 269 272 274 274 275 277 280 283 286 291 295 295 294 290 288 287 289 292 295 296 296 296 298 300 301 302 303 304 306 306 306 307 308 309 308 308 307 307 307 308 308 309 308 307 307 308 309 309 308 307 307 305 305 304 304 303 302 301 301 301 301 300 300 300 300 298 296 293 290 287 284 282 281 279 277
252 254 256 258 259 257 256 257 258 263 268 268 270 273 275 277 280 283 287 292 295 294 292 288 287 288 290 291 293 294 296 299 301 303 303 303 303 304 306 307 307 307 307 307 307 307 307 307 308 309 310 311 310 309 309 308 308 308 307 306 306 304 303 301 300 299 298 298 297 297 298 298 297 298 297 296 295 294 292 289 286 282 279 276 274
250 253 255 256 257 256 256 256 258 262 265 267 271 274 275 278 281 285 289 293 294 292 289 287 287 290 292 292 292 294 298 301 302 303 303 303 304 304 304 304 304 306 306 307 308 309 311 312 313 313 312 311 310 309 309 308 308 307 306 305 304 303 301 299 298 296 295 295 295 294 294 294 294 294 294 294 294 293 291 288 286 283 278 274 273
248 250 252 254 255 255 256 256 257 263 264 264 269 273 276 281 284 287 291 293 292 289 286 286 288 290 292 293 294 296 297 298 299 300 300 301 303 304 304 304 305 307 308 310 312 313 315 315 314 313 311 310 309 308 308 308 308 307 306 304 303 302 300 299 298 296 295 293 292 292 291 290 290 290 291 291 292 292 290 287 284 281 279 277 274
247 248 249 252 254 255 256 257 257 262 263 262 266 272 277 282 286 290 292 293 292 289 287 288 290 292 292 293 295 296 296 297 297 298 299 301 304 306 307 308 309 310 312 313 313 314 314 313 313 312 311 310 309 309 309 308 308 307 306 305 303 302 301 300 299 297 296 294 293 291 290 289 288 287 287 288 289 289 287 285 283 280 279 278 274
246 246 247 250 254 255 256 258 258 259 263 265 267 272 277 282 287 289 290 291 292 290 290 293 294 294 294 294 295 296 298 300 301 302 302 303 306 308 309 310 311 312 312 312 312 312 312 312 312 312 311 311 310 309 309 309 309 307 306 305 304 302 302 301 300 299 298 296 295 293 292 290 289 288 286 286 287 286 285 283 282 280 277 275 272
246 249 251 253 255 255 256 258 260 262 263 265 268 272 277 283 286 287 288 290 291 291 293 295 295 295 295 296 298 299 301 303 305 306 307 307 308 310 311 311 311 311 311 312 312 313 313 312 312 311 311 310 309 309 309 308 308 307 305 304 303 302 301 300 299 298 297 295 294 293 292 290 289 288 287 286 285 284 283 282 280 278 275 273 271
249 252 254 257 257 258 259 261 263 263 262 264 269 273 279 283 285 286 287 289 290 291 293 294 294 295 297 298 300 302 303 305 307 309 310 310 311 312 312 312 311 312 313 314 315 315 314 313 312 310 309 307 307 307 306 306 306 305 304 302 301 301 299 298 297 295 294 293 291 290 290 289 288 287 286 285 284 283 282 280 279 277 274 272 270
251 252 253 256 259 261 260 261 261 260 262 266 270 275 280 283 284 285 287 289 289 290 291 293 294 295 296 298 299 302 305 307 309 310 310 310 311 312 312 313 313 315 316 316 317 316 315 314 313 311 310 308 308 307 307 306 305 304 303 302 301 301 300 299 297 295 293 292 291 290 289 288 288 287 285 285 283 282 280 278 277 276 274 272 269
253 254 253 255 258 258 256 256 258 259 263 267 271 275 279 281 283 285 287 288 287 288 291 293 294 294 294 296 299 302 304 306 308 308 309 309 310 311 312 313 314 315 316 316 316 315 315 315 314 313 313 312 312 311 311 310 309 309 308 307 306 305 303 302 300 297 295 294 292 290 289 288 287 286 285 284 282 281 279 277 276 275 274 272 269
254 253 253 254 254 253 252 253 257 260 262 266 270 274 277 279 282 285 286 285 286 289 292 292 292 292 294 297 299 302 304 306 307 307 308 309 310 311 313 313 314 314 314 313 313 313 312 312 311 311 311 311 311 310 311 311 311 310 310 309 308 306 304 303 301 299 297 296 294 292 290 288 286 285 284 283 281 280 278 277 275 273 272 271 269
251 251 254 254 249 249 250 249 252 257 261 265 269 272 274 278 281 283 283 284 287 290 290 290 290 292 295 298 301 303 305 306 307 308 309 310 311 312 312 313 312 312 312 311 310 310 309 309 309 309 309 308 308 308 308 308 308 308 307 307 306 305 304 302 301 299 297 296 294 293 291 288 286 284 283 281 280 279 277 276 274 272 270 269 268
248 250 254 253 246 246 247 244 245 250 257 263 266 269 273 277 280 281 281 283 286 287 286 288 291 294 298 300 304 305 307 307 308 309 310 310 311 311 310 311 310 311 311 311 310 310 310 310 310 310 310 309 309 309 309 309 308 307 307 306 305 304 304 303 301 300 299 297 296 294 292 289 287 285 282 281 279 277 276 275 273 272 269 267 265
247 249 250 247 244 245 243 239 241 247 255 260 263 268 272 276 277 277 279 282 283 284 286 289 293 297 300 303 305 306 307 308 309 309 310 309 308 308 308 309 310 310 310 310 311 311 311 311 311 311 311 311 311 311 310 310 309 308 307 307 306 306 306 305 303 302 301 299 297 295 292 290 288 285 283 280 278 276 275 273 272 270 268 266 264
245 246 245 243 244 243 239 237 239 246 254 259 264 269 272 273 273 275 278 281 282 285 288 292 296 299 302 304 305 307 308 309 310 309 309 308 307 308 308 309 309 310 310 310 311 312 312 313 313 314 314 313 313 312 312 311 310 310 310 310 309 309 308 307 305 303 302 299 297 295 292 290 287 285 282 280 277 275 273 272 271 269 267 265 263
244 243 241 244 244 235 230 235 240 247 255 261 265 268 269 268 271 275 279 281 283 287 290 294 297 300 302 304 306 309 311 311 310 310 309 308 307 308 309 309 310 310 311 312 313 314 315 316 316 316 316 315 315 314 314 313 313 313 313 312 312 311 310 308 306 304 302 300 297 295 292 289 286 283 281 279 277 274 272 270 268 267 266 264 262
245 241 238 245 244 234 232 238 244 249 255 261 264 264 264 267 272 277 279 282 285 289 292 295 297 299 301 304 308 312 313 312 311 310 309 308 308 308 309 310 311 312 313 314 315 316 316 317 317 317 317 317 317 317 317 317 317 316 315 315 314 313 311 310 308 307 305 303 300 297 293 290 286 283 280 277 275 272 270 268 266 265 264 263 261
242 243 242 245 244 242 242 242 245 249 254 259 261 260 263 268 273 277 279 283 287 289 292 295 297 299 301 305 309 312 312 311 310 310 309 308 308 309 310 311 312 313 314 315 316 318 318 318 319 319 319 319 319 320 320 320 319 319 318 317 317 316 315 314 312 311 310 307 305 302 298 294 289 285 281 278 275 272 269 266 264 263 262 261 260
235 241 246 247 244 243 243 242 244 248 252 255 256 258 265 270 274 278 281 285 287 289 292 295 297 300 303 305 307 308 307 306 308 309 308 308 309 309 310 311 313 314 316 317 318 319 319 320 320 320 321 322 323 323 322 322 322 321 321 321 321 320 319 318 317 316 314 312 310 307 303 299 295 290 286 282 278 275 272 268 265 262 260 259 258
234 240 249 254 249 242 242 242 243 246 248 251 255 261 267 271 275 279 282 284 287 290 293 297 300 303 304 306 307 306 305 304 307 309 309 309 309 309 311 312 314 315 317 318 319 320 321 322 322 323 324 324 324 324 325 324 324 324 324 324 323 323 322 321 320 319 318 317 315 313 310 306 303 298 294 289 285 281 277 274 270 266 263 260 258
239 245 252 257 252 242 241 241 241 243 246 251 258 265 269 273 277 280 282 284 288 293 297 300 302 303 304 306 306 306 305 306 308 309 309 309 309 310 312 313 315 316 318 319 321 322 323 324 325 325 326 326 326 326 327 327 326 326 326 326 325 325 324 324 324 323 322 321 320 317 315 312 309 306 302 299 294 289 284 279 275 271 268 264 261
244 249 253 254 248 243 241 240 241 244 249 256 263 266 270 274 278 280 282 287 292 297 299 301 302 302 302 303 304 305 306 307 308 308 308 308 309 311 312 314 316 317 319 321 322 324 324 326 326 327 327 327 328 328 328 328 328 328 328 328 328 328 328 328 327 326 324 323 321 320 318 316 313 311 308 306 302 298 292 286 280 275 271 267 264
248 252 254 252 247 245 242 241 244 248 254 261 264 268 272 275 277 280 285 291 296 299 301 303 303 301 301 302 304 306 307 307 307 307 308 309 310 312 313 315 317 319 321 322 324 325 326 327 328 328 329 329 330 330 330 330 330 329 330 331 331 331 331 330 329 328 326 324 323 322 321 320 319 317 314 312 310 306 299 292 286 279 274 269 266
250 253 253 250 247 247 244 243 247 252 257 262 266 270 274 276 279 284 289 294 297 300 302 303 303 303 304 306 307 307 307 307 307 308 309 310 311 312 315 317 320 321 322 324 325 326 327 328 329 330 331 332 332 332 332 331 331 332 333 334 333 333 332 333 333 332 331 329 329 328 327 326 324 322 319 317 316 313 306 297 291 287 281 275 270
250 250 246 246 250 250 248 249 251 256 261 264 268 271 273 277 283 287 290 292 296 300 302 303 306 308 309 309 308 307 307 308 308 308 308 309 311 313 317 319 321 322 324 325 326 327 329 330 330 332 333 334 334 333 333 333 334 335 335 335 334 334 335 337 339 338 337 335 334 333 332 330 329 326 324 320 317 315 310 302 295 291 289 285 280
248 247 246 252 258 257 256 256 256 259 263 265 269 272 275 280 284 286 288 290 296 301 303 305 309 310 310 309 308 308 308 308 307 307 308 310 313 316 319 320 322 323 325 326 327 328 330 331 333 334 335 335 334 334 334 336 337 337 336 334 334 336 339 342 344 344 342 340 338 336 335 334 332 331 329 325 319 315 312 308 300 293 290 288 287
241 243 250 256 258 259 258 257 257 261 264 267 270 273 276 280 282 283 284 289 297 302 303 305 308 309 308 308 307 307 306 306 306 307 309 312 315 318 320 322 323 324 325 327 328 330 331 333 335 336 335 335 335 336 338 339 339 337 335 334 336 339 343 345 346 347 347 346 343 340 338 336 334 333 331 329 324 318 312 309 305 299 293 289 286
236 243 252 256 257 258 258 258 261 263 266 269 271 274 276 278 279 279 281 289 297 300 301 304 306 306 306 305 305 305 305 305 306 309 311 314 316 319 321 323 324 326 327 328 330 331 333 335 336 336 336 336 337 339 340 339 337 335 334 336 338 342 344 346 347 349 350 350 350 348 345 341 335 332 331 331 329 323 315 310 306 302 297 293 288
240 247 253 257 259 259 260 262 264 266 268 270 271 273 274 276 277 278 282 289 295 297 299 302 303 303 303 303 303 304 304 306 307 309 312 315 318 321 323 324 326 327 328 329 331 332 335 336 337 337 336 337 339 341 340 338 336 336 337 339 341 344 347 348 350 351 351 352 354 354 353 349 342 339 337 335 332 327 322 318 315 309 303 298 294
248 249 252 256 259 261 263 265 266 268 269 270 272 273 275 276 278 280 283 288 292 295 298 299 299 300 300 301 302 303 304 305 307 311 315 318 320 323 325 326 327 327 328 330 332 334 337 337 337 337 337 339 342 342 339 337 337 338 339 340 342 346 348 351 354 354 353 354 355 356 357 356 354 352 347 341 337 335 331 328 325 320 312 304 299
255 253 253 256 259 261 264 267 270 272 273 274 275 276 277 278 279 280 283 287 291 294 295 296 297 298 299 299 300 302 303 305 309 314 317 320 322 324 326 326 327 327 329 331 333 336 337 337 338 338 339 341 343 341 339 337 337 339 341 342 345 347 348 352 355 355 356 357 357 357 358 359 360 0 357 351 348 347 344 338 331 326 319 311 303
258 258 258 259 262 266 269 272 274 276 277 278 278 278 278 278 279 280 283 287 291 292 293 295 296 296 296 298 300 301 303 307 312 316 318 321 323 325 325 326 326 328 329 332 335 337 338 338 338 338 340 343 342 340 338 336 337 340 342 344 346 347 349 352 354 355 358 359 359 359 359 359 0 2 2 0 358 355 352 347 338 330 323 317 309
262 262 262 264 268 271 272 272 273 275 277 278 277 276 276 277 278 281 284 287 289 291 292 293 293 293 295 298 300 302 305 309 313 316 319 322 324 324 324 325 326 328 330 334 337 338 338 338 338 339 342 343 341 339 337 336 338 341 343 344 345 346 348 352 353 355 358 359 359 0 360 359 359 1 2 4 3 0 357 353 346 338 332 326 317
268 266 267 268 271 274 273 271 271 274 275 275 274 273 274 276 279 282 285 287 288 289 291 291 291 294 297 299 301 303 306 310 313 316 320 322 323 323 324 325 326 328 332 336 338 338 338 338 339 340 342 342 340 338 336 336 338 340 341 342 343 344 347 349 352 355 357 357 358 0 0 360 0 0 0 2 4 4 2 358 353 347 343 337 328
270 270 273 273 273 274 273 272 273 274 274 274 273 273 275 278 281 284 286 287 288 289 290 291 293 296 298 299 301 302 305 309 313 316 319 321 322 322 323 325 327 330 334 337 338 338 338 339 339 340 341 340 339 337 335 336 337 338 339 341 342 342 344 346 348 352 354 355 357 359 360 0 1 1 360 1 2 3 4 3 360 354 348 343 338
269 273 276 276 274 273 273 273 273 272 271 271 272 275 278 281 284 286 287 288 290 290 291 292 294 297 298 298 299 301 305 309 312 316 318 319 321 322 323 325 328 331 335 337 337 337 338 339 339 340 340 339 337 336 334 334 334 335 337 338 338 339 340 342 343 346 349 353 356 357 358 0 1 360 359 0 1 2 3 5 4 0 355 350 347
272 275 276 276 275 274 274 274 273 270 268 270 273 277 281 284 285 286 288 289 290 290 290 292 294 295 296 296 298 300 304 308 311 314 317 318 320 322 323 325 328 332 335 336 337 338 338 339 339 340 339 337 335 333 330 329 329 330 332 334 335 336 337 338 340 342 344 348 352 354 356 359 0 0 359 359 360 1 3 4 4 5 5 0 355
275 275 275 275 273 274 275 275 273 270 270 273 277 280 283 284 285 286 288 289 288 288 290 291 292 293 294 295 297 300 303 306 310 313 315 318 320 322 323 326 328 332 335 336 336 338 338 338 338 338 337 335 333 330 327 325 326 327 329 332 334 335 335 336 338 339 340 343 347 350 352 355 357 359 0 0 360 360 2 3 3 6 9 8 4
277 276 274 272 271 273 274 274 272 270 272 276 279 281 283 283 284 286 287 287 286 287 289 290 291 292 293 294 296 299 302 306 309 312 314 318 320 322 323 326 328 332 334 335 336 337 337 338 337 337 336 333 331 329 328 328 327 327 329 330 331 333 335 336 337 337 339 340 342 344 348 351 353 355 358 0 1 1 1 1 3 4 6 9 10
Height
5851 5851 5850 5850 5849 5849 5849 5849 5849 5848 5848 5848 5848 5847 5847 5846 5845 5845 5844 5843 5842 5841 5840 5840 5839 5838 5838 5838 5837 5837 5836 5835 5835 5834 5833 5833 5833 5832 5832 5832 5831 5830 5829 5828 5827 5826 5824 5824 5823 5822 5822 5821 5820 5819 5818 5816 5815 5813 5811 5810 5809 5808 5806 5805 5804 5803 5803 5802 5801 5800 5799 5798 5797 5796 5795 5794 5793 5792 5792 5791 5791 5790 5790 5790 5789
5850 5850 5849 5848 5848 5848 5848 5847 5847 5847 5846 5846 5846 5846 5845 5845 5844 5844 5843 5842 5841 5840 5839 5839 5838 5837 5837 5836 5836 5835 5835 5834 5833 5833 5833 5832 5832 5832 5831 5831 5830 5829 5828 5827 5826 5825 5824 5823 5822 5821 5821 5820 5819 5818 5817 5815 5814 5812 5811 5809 5808 5807 5805 5804 5803 5802 5801 5800 5800 5799 5798 5797 5796 5795 5794 5793 5792 5791 5790 5790 5789 5789 5788 5788 5788
5849 5848 5848 5847 5846 5846 5846 5846 5846 5846 5845 5845 5845 5845 5844 5844 5843 5843 5842 5841 5840 5840 5839 5838 5837 5836 5836 5835 5835 5835 5834 5833 5833 5832 5832 5832 5831 5831 5831 5830 5829 5828 5827 5826 5825 5824 5823 5822 5821 5820 5819 5819 5817 5816 5815 5814 5813 5811 5810 5808 5807 5806 5804 5803 5802 5800 5799 5799 5798 5797 5796 5795 5795 5794 5793 5792 5791 5790 5789 5788 5788 5787 5786 5786 5786
5847 5847 5846 5846 5845 5845 5845 5844 5844 5844 5844 5844 5844 5843 5843 5843 5842 5841 5840 5840 5839 5839 5838 5837 5836 5835 5835 5834 5834 5834 5833 5833 5832 5832 5831 5831 5831 5830 5830 5829 5828 5827 5826 5825 5824 5823 5822 5821 5820 5819 5818 5817 5816 5815 5813 5812 5811 5809 5808 5807 5806 5804 5803 5802 5801 5799 5798 5797 5796 5795 5794 5794 5793 5793 5792 5791 5790 5789 5788 5787 5786 5785 5785 5784 5784
5846 5845 5845 5844 5844 5843 5843 5843 5843 5843 5843 5843 5843 5842 5842 5842 5841 5840 5839 5839 5838 5838 5837 5836 5835 5835 5834 5833 5833 5833 5833 5832 5832 5831 5831 5830 5830 5829 5828 5828 5827 5826 5825 5824 5823 5822 5821 5820 5819 5818 5817 5816 5814 5813 5812 5810 5809 5807 5806 5805 5804 5803 5801 5800 5799 5798 5797 5796 5794 5793 5792 5792 5791 5791 5790 5789 5789 5788 5787 5786 5785 5784 5783 5782 5782
5844 5844 5843 5842 5843 5842 5842 5842 5842 5842 5842 5841 5841 5841 5841 5840 5839 5838 5838 5838 5837 5837 5836 5835 5834 5834 5833 5833 5832 5832 5832 5831 5831 5830 5830 5829 5829 5828 5827 5826 5826 5825 5824 5822 5821 5821 5820 5819 5818 5817 5816 5814 5813 5811 5810 5808 5807 5805 5804 5803 5802 5801 5800 5798 5797 5796 5795 5794 5793 5792 5790 5790 5789 5789 5788 5787 5787 5786 5785 5784 5783 5782 5781 5780 5780
5843 5842 5841 5841 5841 5841 5841 5841 5841 5841 5840 5840 5840 5840 5839 5839 5838 5837 5837 5836 5836 5836 5835 5834 5833 5833 5832 5832 5832 5831 5831 5830 5830 5829 5829 5828 5828 5827 5826 5825 5824 5824 5823 5822 5821 5820 5819 5818 5817 5816 5814 5813 5811 5809 5808 5806 5805 5803 5802 5801 5800 5799 5797 5796 5795 5794 5793 5792 5791 5790 5789 5788 5787 5786 5786 5785 5784 5784 5783 5782 5781 5780 5780 5779 5778
5841 5840 5839 5839 5840 5840 5840 5840 5840 5839 5839 5838 5838 5838 5838 5837 5836 5836 5835 5835 5835 5834 5834 5833 5833 5832 5831 5831 5830 5830 5829 5829 5828 5828 5828 5827 5827 5826 5825 5824 5823 5822 5822 5821 5820 5819 5818 5817 5815 5814 5813 5811 5810 5808 5806 5805 5803 5801 5800 5799 5798 5796 5795 5794 5793 5792 5790 5789 5788 5787 5786 5786 5785 5784 5783 5783 5782 5781 5780 5780 5779 5778 5777 5777 5776
5839 5838 5838 5838 5838 5839 5839 5839 5838 5838 5838 5837 5837 5836 5835 5835 5835 5834 5834 5834 5834 5833 5833 5832 5832 5831 5831 5830 5829 5829 5828 5827 5827 5827 5826 5826 5826 5825 5824 5823 5822 5821 5820 5819 5818 5817 5816 5815 5814 5813 5811 5809 5808 5806 5804 5803 5801 5799 5798 5797 5795 5794 5792 5791 5790 5789 5787 5786 5785 5784 5783 5782 5782 5781 5781 5780 5779 5779 5778 5777 5777 5776 5775 5774 5774
5837 5837 5836 5836 5836 5838 5837 5837 5837 5836 5836 5835 5835 5835 5834 5833 5833 5833 5833 5833 5833 5832 5831 5831 5831 5830 5830 5829 5828 5827 5827 5826 5826 5825 5825 5825 5824 5823 5822 5822 5821 5820 5819 5817 5816 5814 5813 5812 5811 5810 5810 5808 5806 5804 5803 5800 5799 5797 5796 5794 5793 5791 5790 5788 5787 5786 5784 5783 5782 5781 5780 5779 5779 5778 5778 5777 5777 5776 5775 5775 5774 5773 5772 5772 5771
5835 5835 5834 5834 5835 5836 5836 5835 5835 5834 5834 5834 5834 5833 5832 5832 5831 5831 5832 5831 5831 5831 5831 5830 5830 5830 5828 5828 5827 5826 5826 5825 5825 5824 5824 5823 5823 5822 5821 5821 5820 5819 5817 5816 5814 5812 5811 5809 5807 5806 5806 5806 5804 5803 5801 5798 5796 5795 5793 5792 5790 5788 5787 5785 5784 5783 5781 5780 5779 5778 5777 5776 5775 5775 5774 5774 5774 5773 5772 5771 5770 5770 5769 5769 5768
5832 5832 5832 5832 5833 5834 5834 5834 5833 5833 5833 5833 5833 5831 5830 5830 5830 5830 5830 5830 5830 5830 5829 5829 5829 5829 5827 5826 5826 5825 5824 5824 5823 5823 5823 5822 5821 5821 5820 5819 5818 5817 5816 5815 5813 5812 5810 5808 5806 5803 5802 5802 5802 5801 5799 5796 5793 5791 5790 5789 5787 5786 5784 5782 5781 5779 5778 5777 5775 5775 5774 5773 5772 5771 5770 5770 5770 5769 5769 5768 5767 5766 5766 5765 5765
5830 5829 5829 5830 5831 5832 5832 5831 5831 5831 5832 5833 5832 5829 5828 5828 5828 5829 5829 5829 5828 5828 5828 5828 5827 5827 5826 5825 5825 5824 5823 5823 5822 5822 5821 5820 5820 5819 5818 5817 5816 5815 5814 5813 5812 5811 5808 5807 5805 5802 5800 5798 5798 5797 5797 5795 5792 5788 5787 5786 5785 5783 5781 5779 5778 5776 5775 5774 5772 5771 5770 5769 5768 5767 5766 5766 5766 5765 5765 5764 5763 5763 5762 5762 5761
5827 5827 5827 5827 5828 5829 5830 5829 5829 5829 5830 5831 5829 5827 5827 5827 5827 5827 5827 5827 5827 5827 5826 5826 5826 5826 5825 5825 5824 5823 5822 5821 5820 5820 5819 5819 5818 5817 5817 5815 5814 5814 5812 5811 5810 5808 5807 5805 5803 5801 5798 5796 5794 5793 5792 5792 5790 5787 5784 5783 5782 5780 5778 5777 5775 5774 5772 5770 5769 5767 5766 5764 5764 5763 5762 5762 5761 5761 5761 5760 5759 5758 5758 5757 5757
5824 5824 5824 5825 5826 5827 5827 5827 5827 5827 5827 5828 5827 5826 5826 5825 5825 5826 5826 5826 5825 5825 5824 5825 5824 5824 5824 5824 5823 5822 5821 5820 5819 5819 5818 5817 5816 5816 5815 5814 5813 5811 5810 5808 5807 5805 5803 5802 5800 5798 5796 5794 5792 5790 5789 5787 5786 5785 5782 5780 5778 5777 5775 5773 5772 5770 5768 5767 5765 5764 5762 5761 5759 5758 5758 5757 5757 5757 5756 5756 5755 5754 5753 5753 5753
5821 5821 5822 5823 5824 5825 5825 5825 5826 5825 5825 5826 5825 5824 5824 5824 5824 5824 5824 5824 5824 5823 5823 5823 5823 5823 5823 5822 5822 5821 5820 5819 5818 5818 5817 5816 5815 5814 5813 5812 5811 5809 5807 5805 5803 5801 5800 5798 5797 5795 5793 5791 5789 5788 5786 5784 5783 5781 5779 5777 5775 5773 5771 5769 5767 5766 5764 5763 5761 5760 5758 5757 5755 5754 5753 5752 5752 5752 5751 5751 5750 5750 5749 5749 5749
5818 5818 5819 5821 5822 5822 5822 5823 5825 5824 5823 5823 5823 5822 5822 5823 5823 5823 5823 5822 5822 5822 5821 5821 5821 5821 5821 5821 5820 5819 5818 5817 5816 5816 5815 5814 5814 5812 5810 5809 5807 5806 5804 5802 5801 5799 5797 5795 5793 5792 5790 5788 5786 5784 5783 5781 5779 5777 5775 5773 5771 5769 5767 5765 5763 5761 5759 5758 5757 5755 5754 5752 5751 5750 5749 5748 5748 5747 5746 5745 5745 5745 5744 5744 5744
5814 5815 5816 5818 5820 5820 5820 5822 5823 5822 5821 5820 5820 5820 5821 5822 5822 5822 5821 5820 5821 5821 5820 5820 5820 5820 5820 5819 5819 5817 5816 5815 5814 5813 5812 5811 5811 5810 5808 5807 5805 5803 5801 5800 5798 5796 5794 5792 5790 5788 5787 5785 5783 5781 5779 5777 5775 5773 5771 5769 5767 5765 5763 5761 5759 5757 5755 5753 5751 5750 5749 5748 5746 5745 5744 5744 5743 5742 5741 5741 5740 5740 5739 5739 5739
5813 5815 5815 5816 5818 5818 5819 5820 5820 5820 5819 5819 5818 5819 5819 5820 5820 5820 5819 5819 5819 5819 5819 5819 5818 5818 5818 5817 5816 5815 5814 5813 5812 5810 5809 5808 5808 5808 5806 5804 5802 5801 5799 5797 5795 5794 5792 5790 5788 5785 5783 5782 5779 5777 5775 5773 5771 5769 5767 5764 5762 5760 5758 5757 5755 5753 5751 5749 5747 5745 5744 5743 5741 5740 5739 5739 5738 5738 5736 5736 5736 5735 5734 5734 5734
5812 5813 5814 5814 5816 5816 5817 5818 5819 5819 5819 5818 5817 5818 5818 5818 5818 5818 5818 5818 5818 5818 5818 5817 5817 5816 5816 5815 5814 5813 5812 5811 5810 5808 5807 5805 5804 5804 5803 5801 5799 5797 5795 5794 5791 5790 5788 5786 5785 5783 5781 5779 5776 5774 5772 5770 5768 5766 5763 5761 5758 5756 5754 5753 5751 5749 5747 5745 5743 5741 5739 5738 5736 5735 5734 5734 5733 5733 5732 5731 5730 5730 5730 5729 5729
5809 5810 5811 5812 5813 5815 5816 5816 5817 5818 5818 5817 5817 5817 5817 5817 5817 5817 5816 5816 5816 5816 5816 5816 5815 5815 5814 5813 5812 5811 5810 5809 5808 5807 5806 5803 5801 5800 5800 5798 5796 5794 5791 5789 5788 5785 5784 5782 5780 5778 5776 5774 5772 5770 5768 5766 5764 5762 5760 5757 5755 5753 5750 5748 5746 5745 5743 5741 5739 5737 5735 5733 5731 5730 5729 5728 5727 5727 5726 5725 5725 5724 5724 5724 5724
5807 5808 5809 5810 5811 5813 5814 5814 5815 5816 5816 5816 5815 5815 5815 5815 5815 5815 5815 5815 5815 5814 5814 5814 5814 5813 5813 5812 5811 5810 5809 5808 5807 5806 5804 5802 5800 5798 5797 5795 5793 5792 5789 5786 5784 5782 5780 5778 5776 5773 5771 5768 5766 5764 5761 5759 5758 5756 5754 5751 5749 5748 5745 5743 5741 5739 5737 5735 5733 5732 5730 5728 5726 5724 5723 5722 5721 5720 5720 5720 5719 5718 5718 5718 5718
5805 5805 5807 5808 5809 5809 5810 5812 5813 5814 5814 5814 5814 5814 5813 5813 5813 5813 5813 5813 5813 5813 5813 5812 5812 5811 5811 5810 5809 5808 5807 5806 5805 5804 5802 5800 5798 5796 5795 5793 5790 5789 5788 5785 5783 5781 5778 5776 5774 5771 5769 5766 5763 5761 5758 5756 5753 5751 5749 5747 5745 5743 5741 5738 5736 5734 5731 5729 5727 5725 5723 5722 5720 5718 5717 5716 5715 5714 5713 5713 5713 5713 5712 5712 5712
5802 5802 5804 5805 5806 5807 5808 5810 5811 5812 5812 5812 5812 5812 5812 5812 5812 5812 5812 5812 5811 5811 5811 5811 5810 5810 5809 5808 5807 5806 5805 5804 5803 5801 5800 5798 5796 5794 5792 5790 5788 5786 5785 5783 5781 5779 5777 5774 5772 5770 5767 5764 5762 5759 5757 5754 5752 5749 5746 5744 5741 5739 5736 5734 5731 5729 5726 5724 5721 5719 5717 5715 5713 5712 5710 5709 5708 5707 5706 5706 5706 5706 5706 5705 5704
5799 5801 5802 5803 5804 5805 5807 5807 5808 5809 5810 5810 5810 5809 5810 5810 5810 5810 5810 5810 5810 5810 5809 5809 5808 5808 5807 5806 5805 5804 5803 5802 5800 5799 5797 5795 5794 5792 5790 5788 5785 5783 5781 5779 5777 5775 5774 5771 5768 5766 5764 5762 5759 5757 5754 5751 5748 5746 5743 5741 5738 5735 5732 5729 5726 5723 5720 5718 5715 5712 5710 5707 5705 5704 5703 5701 5700 5699 5699 5698 5698 5698 5698 5698 5697
5797 5799 5800 5801 5802 5804 5805 5805 5806 5807 5807 5807 5807 5807 5808 5808 5808 5808 5808 5808 5808 5808 5807 5807 5806 5805 5805 5804 5803 5802 5800 5799 5798 5796 5795 5793 5791 5789 5788 5785 5783 5781 5778 5776 5774 5771 5769 5768 5766 5763 5761 5758 5756 5753 5750 5748 5745 5742 5739 5736 5733 5730 5726 5723 5719 5717 5714 5711 5708 5705 5702 5699 5697 5695 5694 5693 5692 5691 5690 5690 5690 5690 5690 5690 5690
5795 5797 5798 5798 5800 5802 5803 5802 5803 5804 5804 5805 5805 5806 5806 5806 5806 5807 5807 5806 5806 5806 5805 5805 5804 5803 5803 5802 5801 5799 5798 5797 5795 5794 5792 5790 5789 5787 5785 5783 5781 5778 5776 5773 5771 5769 5766 5764 5762 5760 5757 5755 5752 5750 5747 5744 5740 5737 5734 5731 5727 5724 5721 5716 5712 5710 5707 5704 5701 5697 5694 5691 5689 5686 5685 5683 5683 5682 5681 5681 5681 5681 5681 5681 5682
5793 5794 5796 5796 5798 5799 5800 5800 5801 5801 5802 5803 5804 5804 5804 5804 5805 5805 5805 5804 5804 5804 5803 5803 5802 5802 5801 5800 5798 5797 5796 5794 5792 5791 5790 5788 5786 5784 5782 5780 5777 5775 5773 5770 5768 5766 5764 5761 5759 5757 5754 5751 5748 5746 5743 5739 5735 5732 5728 5725 5722 5718 5715 5710 5705 5702 5700 5696 5693 5690 5686 5683 5680 5677 5675 5673 5673 5672 5671 5671 5671 5671 5672 5672 5673
5791 5793 5794 5795 5796 5796 5797 5797 5799 5800 5801 5801 5802 5802 5802 5803 5803 5803 5803 5803 5802 5802 5801 5801 5800 5799 5798 5797 5796 5795 5793 5791 5790 5789 5787 5785 5783 5781 5779 5777 5774 5772 5770 5767 5765 5763 5761 5759 5756 5753 5750 5747 5744 5741 5738 5734 5730 5726 5722 5718 5715 5711 5707 5703 5698 5694 5691 5688 5684 5681 5677 5674 5670 5668 5665 5663 5662 5661 5661 5661 5661 5661 5662 5663 5664
5790 5791 5792 5793 5793 5794 5794 5795 5797 5798 5798 5799 5800 5800 5800 5801 5801 5801 5801 5801 5800 5800 5799 5799 5798 5797 5796 5795 5794 5792 5791 5789 5788 5786 5785 5783 5781 5779 5776 5774 5772 5769 5767 5765 5763 5761 5758 5756 5753 5750 5747 5743 5739 5735 5732 5728 5724 5719 5715 5710 5706 5702 5698 5694 5689 5685 5681 5678 5674 5671 5667 5664 5661 5658 5655 5653 5651 5650 5649 5650 5650 5651 5652 5653 5654
5787 5789 5790 5790 5790 5791 5792 5794 5795 5795 5796 5797 5798 5798 5799 5799 5799 5799 5799 5799 5798 5798 5797 5797 5796 5795 5794 5792 5791 5790 5788 5787 5786 5784 5782 5780 5778 5776 5773 5771 5769 5767 5765 5763 5760 5758 5755 5752 5749 5746 5742 5738 5734 5730 5726 5722 5717 5713 5708 5703 5698 5693 5688 5684 5679 5675 5671 5668 5665 5662 5659 5655 5653 5650 5647 5644 5642 5640 5639 5639 5639 5640 5641 5642 5644
5785 5787 5788 5789 5789 5790 5791 5792 5793 5793 5794 5795 5796 5796 5797 5797 5797 5797 5797 5797 5796 5796 5795 5794 5793 5792 5791 5789 5788 5787 5786 5784 5783 5781 5779 5777 5775 5773 5771 5769 5767 5765 5763 5760 5758 5755 5752 5748 5745 5741 5737 5733 5729 5725 5721 5715 5710 5705 5701 5696 5691 5686 5681 5677 5672 5668 5664 5661 5658 5654 5651 5648 5645 5643 5640 5637 5635 5633 5631 5630 5630 5630 5631 5632 5633
5783 5785 5786 5787 5788 5788 5789 5790 5791 5791 5792 5793 5794 5795 5795 5795 5795 5795 5795 5795 5794 5793 5793 5792 5791 5789 5788 5787 5785 5784 5783 5781 5780 5778 5776 5774 5772 5770 5768 5766 5764 5762 5760 5758 5755 5752 5748 5745 5741 5737 5733 5728 5724 5720 5716 5710 5705 5699 5694 5690 5686 5681 5677 5672 5668 5663 5659 5655 5652 5648 5645 5642 5638 5636 5633 5631 5629 5626 5624 5623 5622 5622 5622 5622 5624
5782 5783 5784 5785 5786 5786 5787 5788 5789 5790 5791 5792 5792 5793 5793 5793 5793 5793 5793 5792 5792 5791 5790 5789 5788 5786 5785 5784 5783 5781 5780 5778 5777 5775 5773 5771 5769 5767 5766 5764 5762 5759 5757 5754 5751 5748 5745 5741 5738 5734 5729 5725 5719 5714 5710 5706 5701 5695 5690 5685 5681 5677 5673 5669 5664 5659 5654 5650 5647 5643 5639 5636 5633 5630 5627 5625 5623 5620 5618 5616 5615 5614 5614 5614 5615
5780 5781 5782 5783 5784 5785 5786 5787 5788 5789 5789 5790 5791 5791 5791 5792 5792 5791 5791 5790 5789 5788 5787 5786 5785 5784 5783 5781 5780 5779 5777 5776 5774 5772 5770 5768 5767 5765 5763 5761 5759 5756 5754 5751 5748 5745 5741 5737 5734 5730 5725 5721 5715 5709 5705 5701 5697 5692 5687 5682 5678 5674 5670 5666 5661 5656 5651 5646 5643 5639 5635 5631 5628 5625 5622 5620 5618 5615 5613 5610 5609 5608 5607 5607 5607
5779 5779 5780 5781 5782 5783 5784 5785 5786 5787 5788 5788 5789 5789 5790 5790 5789 5789 5789 5788 5787 5786 5785 5784 5783 5781 5780 5779 5777 5776 5775 5773 5771 5769 5768 5766 5764 5762 5760 5758 5756 5753 5751 5748 5745 5741 5738 5734 5730 5726 5721 5717 5712 5706 5701 5696 5692 5688 5684 5680 5676 5672 5667 5663 5659 5654 5649 5644 5640 5636 5632 5628 5625 5621 5618 5615 5613 5610 5608 5606 5604 5602 5601 5600 5601
5777 5777 5778 5780 5781 5782 5783 5784 5785 5785 5786 5787 5787 5787 5788 5787 5787 5787 5786 5785 5784 5783 5782 5781 5780 5779 5777 5776 5775 5773 5772 5770 5769 5767 5766 5764 5762 5760 5758 5755 5753 5750 5747 5744 5741 5738 5734 5731 5726 5722 5717 5713 5708 5704 5699 5694 5689 5684 5681 5678 5674 5670 5666 5661 5657 5652 5647 5642 5638 5633 5629 5625 5622 5618 5614 5611 5608 5606 5604 5602 5600 5598 5597 5595 5595
5775 5776 5777 5778 5779 5780 5781 5782 5783 5783 5784 5784 5785 5785 5785 5785 5784 5784 5783 5783 5782 5781 5780 5779 5777 5776 5775 5773 5772 5771 5769 5768 5766 5765 5763 5761 5760 5757 5755 5753 5750 5747 5744 5741 5738 5734 5731 5727 5723 5718 5714 5709 5705 5700 5696 5691 5687 5683 5679 5676 5672 5669 5665 5660 5656 5651 5646 5641 5636 5632 5627 5623 5619 5615 5612 5608 5605 5602 5600 5598 5597 5595 5593 5592 5591
5774 5775 5776 5777 5778 5779 5780 5780 5781 5781 5782 5782 5783 5783 5782 5782 5782 5781 5781 5780 5779 5778 5777 5776 5774 5773 5772 5771 5769 5768 5767 5765 5764 5762 5761 5759 5757 5755 5753 5750 5747 5744 5741 5738 5735 5731 5727 5723 5719 5715 5711 5706 5702 5697 5693 5689 5685 5682 5679 5675 5671 5667 5663 5660 5655 5650 5646 5641 5636 5631 5626 5621 5617 5613 5609 5606 5603 5600 5597 5595 5593 5591 5590 5588 5587
5773 5773 5775 5776 5776 5777 5778 5778 5779 5779 5780 5780 5780 5780 5779 5779 5779 5778 5778 5777 5777 5775 5774 5773 5772 5770 5769 5768 5767 5766 5765 5763 5761 5760 5758 5756 5754 5752 5750 5747 5744 5741 5738 5735 5731 5728 5724 5720 5716 5711 5707 5703 5699 5694 5690 5687 5685 5682 5678 5674 5670 5666 5662 5658 5654 5649 5645 5640 5636 5631 5626 5621 5617 5612 5608 5604 5601 5598 5595 5592 5590 5588 5586 5584 5583
5771 5772 5773 5774 5775 5776 5776 5777 5777 5777 5778 5777 5777 5777 5777 5776 5776 5776 5775 5775 5774 5772 5771 5770 5769 5768 5767 5766 5765 5763 5762 5760 5759 5757 5756 5754 5751 5749 5747 5744 5741 5738 5735 5732 5729 5725 5721 5716 5712 5708 5704 5700 5696 5692 5689 5686 5684 5681 5677 5673 5669 5665 5661 5657 5652 5648 5644 5639 5635 5630 5626 5621 5616 5612 5607 5603 5599 5596 5592 5589 5586 5584 5582 5580 5579
5770 5771 5772 5772 5773 5774 5774 5775 5775 5775 5775 5775 5775 5774 5774 5774 5773 5773 5773 5772 5771 5770 5768 5767 5766 5765 5764 5763 5762 5761 5759 5758 5756 5755 5753 5751 5748 5746 5743 5741 5738 5735 5732 5729 5726 5722 5717 5713 5709 5705 5701 5697 5693 5690 5687 5685 5682 5679 5676 5672 5668 5664 5660 5656 5652 5648 5643 5638 5634 5630 5625 5620 5615 5611 5606 5602 5598 5594 5590 5586 5584 5581 5579 5578 5576
5769 5770 5770 5771 5771 5772 5773 5773 5773 5773 5773 5772 5772 5771 5771 5771 5771 5770 5770 5769 5768 5767 5766 5765 5764 5763 5762 5761 5760 5758 5757 5755 5754 5752 5750 5748 5745 5743 5741 5738 5736 5733 5730 5726 5723 5719 5715 5711 5707 5703 5699 5695 5691 5688 5686 5683 5680 5677 5674 5670 5666 5663 5659 5655 5652 5648 5643 5638 5633 5629 5624 5619 5614 5610 5605 5601 5597 5592 5588 5585 5582 5580 5577 5575 5574
5767 5768 5769 5769 5770 5770 5771 5771 5771 5771 5770 5769 5769 5769 5768 5768 5768 5767 5767 5766 5765 5764 5763 5762 5761 5760 5759 5758 5757 5755 5754 5753 5751 5749 5747 5745 5743 5740 5738 5736 5733 5730 5727 5724 5720 5716 5712 5708 5704 5701 5697 5693 5690 5687 5684 5682 5679 5675 5672 5669 5665 5662 5658 5654 5651 5647 5643 5638 5633 5628 5624 5619 5615 5610 5605 5601 5596 5592 5588 5584 5581 5579 5576 5573 5571
5766 5766 5767 5768 5768 5768 5768 5768 5768 5768 5767 5767 5766 5766 5766 5766 5765 5765 5764 5763 5763 5762 5761 5760 5759 5758 5756 5755 5754 5752 5751 5750 5748 5747 5745 5742 5740 5738 5736 5733 5731 5728 5724 5721 5717 5713 5709 5706 5702 5698 5695 5691 5688 5686 5683 5680 5677 5674 5671 5668 5664 5661 5658 5654 5650 5646 5642 5638 5633 5628 5623 5619 5614 5610 5605 5601 5596 5592 5588 5584 5580 5577 5575 5572 5569
5764 5764 5765 5766 5766 5766 5766 5765 5765 5765 5764 5764 5764 5764 5763 5763 5763 5762 5761 5761 5760 5759 5758 5757 5756 5755 5754 5752 5751 5750 5748 5747 5746 5744 5742 5740 5737 5735 5733 5731 5728 5725 5721 5718 5714 5711 5707 5703 5700 5696 5692 5689 5687 5685 5682 5679 5676 5673 5670 5667 5664 5660 5657 5653 5650 5645 5641 5637 5633 5629 5624 5619 5614 5610 5605 5601 5596 5592 5588 5584 5580 5576 5573 5571 5568
5762 5763 5763 5763 5763 5763 5763 5763 5762 5762 5762 5761 5761 5761 5761 5760 5760 5759 5759 5758 5757 5756 5755 5754 5753 5752 5751 5750 5748 5747 5746 5745 5743 5741 5739 5737 5735 5733 5730 5728 5725 5722 5718 5715 5712 5708 5705 5701 5697 5694 5691 5688 5685 5683 5680 5677 5674 5671 5669 5665 5662 5659 5656 5652 5649 5645 5642 5638 5633 5629 5625 5620 5615 5610 5606 5602 5597 5593 5589 5584 5580 5576 5572 5569 5567
5761 5761 5761 5761 5761 5761 5760 5760 5760 5759 5759 5759 5759 5758 5758 5757 5757 5756 5756 5755 5754 5753 5752 5751 5750 5749 5748 5747 5746 5745 5744 5742 5740 5738 5736 5734 5732 5730 5728 5725 5722 5719 5716 5713 5710 5706 5703 5699 5695 5692 5689 5686 5683 5681 5678 5676 5673 5670 5667 5664 5661 5658 5655 5652 5648 5645 5642 5638 5633 5629 5625 5621 5616 5611 5606 5602 5598 5594 5589 5585 5581 5576 5572 5568 5566
5758 5758 5758 5758 5758 5758 5758 5757 5757 5757 5756 5756 5756 5755 5755 5754 5754 5753 5753 5752 5751 5751 5750 5749 5748 5747 5746 5745 5744 5742 5741 5739 5738 5736 5734 5732 5730 5728 5725 5723 5720 5717 5714 5711 5708 5704 5700 5697 5693 5690 5687 5684 5682 5679 5677 5675 5672 5669 5667 5664 5661 5657 5654 5651 5648 5644 5641 5637 5633 5629 5625 5621 5618 5613 5608 5603 5598 5595 5590 5586 5582 5577 5573 5569 5565
5756 5756 5755 5755 5755 5755 5754 5754 5754 5754 5754 5753 5753 5752 5752 5751 5751 5750 5750 5749 5749 5748 5747 5746 5745 5744 5743 5742 5741 5740 5738 5737 5735 5733 5731 5729 5727 5725 5723 5720 5717 5714 5711 5708 5705 5702 5698 5695 5692 5689 5686 5684 5681 5679 5676 5674 5671 5668 5665 5662 5659 5656 5653 5650 5646 5643 5640 5636 5633 5629 5625 5621 5618 5614 5610 5605 5600 5595 5591 5587 5582 5578 5574 5570 5565
5752 5752 5752 5752 5752 5751 5751 5751 5751 5751 5750 5750 5750 5749 5749 5748 5748 5747 5747 5746 5746 5745 5744 5743 5742 5742 5741 5740 5738 5737 5735 5734 5732 5730 5728 5726 5724 5722 5720 5718 5715 5712 5709 5706 5703 5700 5696 5693 5690 5688 5685 5683 5680 5678 5675 5672 5669 5666 5663 5660 5658 5655 5651 5648 5645 5642 5639 5635 5632 5628 5625 5621 5617 5613 5610 5606 5602 5597 5591 5587 5583 5579 5575 5571 5567